Rae Point,

8:38 PM MDT on October 16, 2017 (GMT -0600)
Rae Point

Weather History for CZRP - June, 2014

Change the Weather History Date:

Saturday, June 7, 2014

  Actual Average Record
Temperature  
Mean Temperature 22 °F -  
Max Temperature 27 °F - - ()
Min Temperature 17 °F - - ()
Degree Days  
Heating Degree Days 43    
Moisture  
Dew Point 20 °F    
Average Humidity 92    
Maximum Humidity 100    
Minimum Humidity 83    
Precipitation  
Precipitation 0.00 in - - ()
Sea Level Pressure  
Sea Level Pressure 30.19 in    
Wind  
Wind Speed 3 mph ()    
Max Wind Speed 8 mph    
Max Gust Speed -    
T = Trace of Precipitation, MM = Missing Value Source: Averaged Metar Reports

Daily Weather History Graph

Daily Weather History Graph

Search for Another Location

Airport or City:

Trip Planner

Search our weather history database for the weather conditions in past years. The results will help you decide how hot, cold, wet, or windy it might be!

Date:

Astronomy

Dec. 31, 1969 Rise Set
Actual Time Sun does not rise Sun does not rise
Civil Twilight Sun does not rise Sun does not rise
Nautical Twilight Sun does not rise Sun does not rise
Astronomical Twilight Sun does not rise Sun does not rise
Moon 4:02 PM MDT (6/7) 1:18 AM MDT (6/7)
Length of Visible Light 24h 00m
Length of Day
24h 00m
Waxing Gibbous, 68% of the Moon is Illuminated
Jun 7
Waxing Gibbous
Jun 12
Full
Jun 19
Last Quarter
Jun 27
New
Jul 5
First Quarter

Hourly Weather History & Observations

Time (MDT) Temp. Windchill Dew Point Humidity Pressure Visibility Wind Dir Wind Speed Gust Speed Precip Events Conditions
12:00 AM 20 °F - 20 °F 99% 30.19 in - NNW 2.3 mph - -  
12:00 AM 20.3 °F - 19.8 °F 98% 30.19 in - NNW 2.3 mph - N/A   Unknown
2:00 AM 19.9 °F - 19.4 °F 98% 30.20 in - East 2.3 mph - N/A   Unknown
3:00 AM 18.9 °F 10.8 °F 18.1 °F 97% 30.19 in - South 5.8 mph - N/A   Unknown
4:00 AM 18.7 °F - 17.4 °F 95% 30.20 in - Calm Calm - N/A   Unknown
5:00 AM 17.1 °F 10.0 °F 15.8 °F 95% 30.19 in - SSE 4.6 mph - N/A   Unknown
6:00 AM 18 °F - 16 °F 87% 30.20 in - SSE 3.5 mph - -  
6:00 AM 17.6 °F 12.3 °F 15.8 °F 93% 30.20 in - SSE 3.5 mph - N/A   Unknown
7:00 AM 18.3 °F 10.2 °F 18.5 °F 100% 30.19 in - SSE 5.8 mph - N/A   Unknown
8:00 AM 19.4 °F 11.5 °F 17.8 °F 93% 30.18 in - SSE 5.8 mph - N/A   Unknown
9:00 AM 20.1 °F 10.3 °F 18.1 °F 92% 30.18 in - SSE 8.1 mph - N/A   Unknown
10:00 AM 21.6 °F 13.0 °F 19.2 °F 91% 30.18 in - SSE 6.9 mph - N/A   Unknown
12:00 PM 24 °F - 21 °F 83% 30.18 in - SE 5.8 mph - -  
12:00 PM 23.7 °F 16.6 °F 21.0 °F 89% 30.18 in - SE 5.8 mph - N/A   Unknown
1:00 PM 27.1 °F - 23.0 °F 84% 30.18 in - SE 2.3 mph - N/A   Unknown
2:00 PM 25.0 °F 19.3 °F 21.6 °F 87% 30.18 in - ESE 4.6 mph - N/A   Unknown
3:00 PM 24.6 °F - 22.1 °F 90% 30.18 in - East 2.3 mph - N/A   Unknown
4:00 PM 24.3 °F 19.9 °F 21.7 °F 90% 30.18 in - East 3.5 mph - N/A   Unknown
5:00 PM 23.4 °F 18.9 °F 20.7 °F 89% 30.18 in - NNE 3.5 mph - N/A   Unknown
6:00 PM 25 °F - 22 °F 83% 30.19 in - East 2.3 mph - -  
6:00 PM 24.6 °F - 21.9 °F 89% 30.19 in - East 2.3 mph - N/A   Unknown
7:00 PM 22.8 °F 18.2 °F 21.2 °F 93% 30.19 in - North 3.5 mph - N/A   Unknown
9:00 PM 21.9 °F 15.7 °F 21.0 °F 96% 30.18 in - NE 4.6 mph - N/A   Unknown
10:00 PM 21.6 °F 15.3 °F 21.0 °F 98% 30.17 in - ENE 4.6 mph - N/A   Unknown